This is the latest recevied weather packets stored in our database for station/object K1KOF. If no packets are shown the sender has not sent any weather packets the latest 10 day(s).
| Time | Temp. | Humidity | Pressure | Rain* | Wind** | Luminosity | Snow |
|---|---|---|---|---|---|---|---|
| 1778172440 | 21.11° C | 99% | 1020 hPa | 0 mm | - | 351 W/m² | - |
| 1778172137 | 20° C | 99% | 1020.1 hPa | 0 mm | - | 317 W/m² | - |
| 1778171835 | 20° C | 99% | 1020.1 hPa | 0 mm | - | 236 W/m² | - |
| 1778171533 | 20° C | 99% | 1020.2 hPa | 0 mm | - | 273 W/m² | - |
| 1778171228 | 20° C | 99% | 1020.4 hPa | 0 mm | - | 247 W/m² | - |
| 1778170924 | 20° C | 99% | 1020.5 hPa | 0 mm | - | 309 W/m² | - |
| 1778170621 | 19.44° C | 99% | 1020.6 hPa | 0 mm | - | 285 W/m² | - |
| 1778170317 | 19.44° C | 99% | 1020.6 hPa | 0 mm | - | 225 W/m² | - |
| 1778170013 | 19.44° C | 99% | 1020.8 hPa | 0 mm | - | 116 W/m² | - |
| 1778169710 | 20° C | 99% | 1020.7 hPa | 0 mm | - | 119 W/m² | - |
| 1778169406 | 20° C | 99% | 1020.3 hPa | 0 mm | - | 219 W/m² | - |
| 1778169103 | 20° C | 99% | 1020.4 hPa | 0 mm | - | 365 W/m² | - |
| 1778168799 | 20° C | 99% | 1020.2 hPa | 0 mm | - | 533 W/m² | - |
| 1778168497 | 19.44° C | 99% | 1020.2 hPa | 0 mm | - | 768 W/m² | - |
| 1778168193 | 18.89° C | 99% | 1020.3 hPa | 0 mm | - | 114 W/m² | - |
| 1778167890 | 18.89° C | 99% | 1020.7 hPa | 0 mm | - | 55 W/m² | - |
| 1778167586 | 18.89° C | 99% | 1021.1 hPa | 0 mm | - | 57 W/m² | - |
| 1778167282 | 18.89° C | 99% | 1020.9 hPa | 0 mm | - | 64 W/m² | - |
| 1778166978 | 18.89° C | 99% | 1020.3 hPa | 0 mm | - | 72 W/m² | - |
| 1778166675 | 18.89° C | 99% | 1020.4 hPa | 0 mm | - | 106 W/m² | - |
| 1778166373 | 18.89° C | 99% | 1020 hPa | 0 mm | - | 126 W/m² | - |
| 1778166069 | 19.44° C | 99% | 1019.8 hPa | 0 mm | - | 164 W/m² | - |
| 1778165764 | 18.89° C | 99% | 1020.2 hPa | 0 mm | - | 174 W/m² | - |
| 1778165463 | 18.89° C | 99% | 1020.3 hPa | 0 mm | - | 193 W/m² | - |
| 1778165158 | 18.89° C | 99% | 1020.3 hPa | 0 mm | - | 120 W/m² | - |
* Rain latest hour (hover to see other rain measurements)
** Current wind speed in m/s (hover to see current wind gust speed)